Powrót do katalogu

STARLINK-30808

AktywnyŁącznośćVLEO
NORAD 58250·PAYLOAD·🇺🇸 United States

Wystrzelony Nov 8, 2023 z Cape Canaveral Space Force Station

Loading…

Następne Przeloty (najbliższe 24 godziny)

TLE

ŚwieżeSource: CelesTrak SupGP

Epoka: Sep 14, 2026, 21:23 UTC

1 58250C 23171W   26257.89145833  .00036526  00000+0  99089-3 0  2573
2 58250  42.9986 293.0715 0007976  53.8763 260.2283 15.36730431    15

Śledź STARLINK-30808 w czasie rzeczywistym z AllMySat

Download on the App Store